This demonstration page uses our WeatherBlox Daily Observations layout. Learn more.

Left ArrowRight Arrow

Hourly Observations for July 10, 2017

Temp ( °F °C ) Dew Point ( °F °C ) Humidity (%) Winds ( mph kmh ) Pressure ( in mb ) Visibility ( mi km ) Precip ( " mm )
12:15 am 00:15 Clear 84 29 58 14.6 41 41 SW 15 24 29.74 1007 10 16 0.00 0.00
12:35 am 00:35 Clear 82 27.6 60 15.3 47 47 SSW 9 15 29.74 1007 10 16 0.00 0.00
12:55 am 00:55 Clear 81 27.1 59 15.2 48 48 SSW 10 17 29.74 1007 10 16 0.00 0.00
1:15 am 01:15 Clear 82 28 58 14.6 44 44 SSW 13 20 29.71 1006 10 16 0.00 0.00
1:35 am 01:35 Clear 84 29.1 57 13.8 39 39 SW 13 20 29.68 1005 10 16 0.00 0.00
1:55 am 01:55 Clear 85 29.5 56 13.4 37 37 SW 17 28 29.68 1005 10 16 0.00 0.00
2:15 am 02:15 Clear 84 29.1 56 13.5 38 38 WSW 13 20 29.68 1005 10 16 0.00 0.00
2:35 am 02:35 Clear 83 28.5 57 13.8 41 41 WSW 10 17 29.74 1007 10 16 0.00 0.00
2:55 am 02:55 Clear 82 28 57 14.1 43 43 WSW 8 13 29.74 1007 10 16 0.00 0.00
3:15 am 03:15 Clear 82 27.9 57 14 43 43 W 8 13 29.74 1007 10 16 0.00 0.00
3:35 am 03:35 Clear 77 25.1 59 15 54 54 WNW 5 7 29.77 1008 10 16 0.00 0.00
3:55 am 03:55 Clear 76 24.7 59 15.1 55 55 Calm 29.77 1008 10 16 0.00 0.00
4:15 am 04:15 Clear 76 24.6 59 14.8 55 55 Calm 29.74 1007 10 16 0.00 0.00
4:35 am 04:35 Clear 76 24.7 59 14.8 54 54 Calm 29.77 1008 10 16 0.00 0.00
4:55 am 04:55 Clear 73 23 60 15.4 62 62 W 5 7 29.74 1007 10 16 0.00 0.00
5:15 am 05:15 Clear 75 23.8 59 15.2 59 59 WSW 6 9 29.77 1008 10 16 0.00 0.00
5:35 am 05:35 Clear 73 22.8 60 15.5 64 64 Calm 29.77 1008 10 16 0.00 0.00
5:55 am 05:55 Clear 71 21.7 61 15.9 70 70 Calm 29.80 1009 10 16 0.00 0.00
6:15 am 06:15 Clear 70 21.2 61 16 72 72 NE 3 6 29.83 1010 10 16 0.00 0.00
6:35 am 06:35 Sunny 69 20.3 61 16 76 76 Calm 29.83 1010 10 16 0.00 0.00
6:55 am 06:55 Sunny 68 20.2 61 16.2 78 78 Calm 29.83 1010 10 16 0.00 0.00
7:15 am 07:15 Sunny 69 20.6 62 16.8 79 79 Calm 29.83 1010 10 16 0.00 0.00
7:35 am 07:35 Sunny 73 22.6 64 17.6 73 73 Calm 29.80 1009 10 16 0.00 0.00
7:55 am 07:55 Sunny 75 24 64 17.7 68 68 Calm 29.77 1008 10 16 0.00 0.00
8:15 am 08:15 Sunny 76 24.4 66 18.7 71 71 Calm 29.80 1009 10 16 0.00 0.00
8:35 am 08:35 Sunny 77 24.9 64 17.5 64 64 NNE 3 6 29.80 1009 10 16 0.00 0.00
8:55 am 08:55 Sunny 78 25.7 62 16.4 57 57 NE 6 9 29.80 1009 10 16 0.00 0.00
9:15 am 09:15 Sunny 79 26 60 15.7 53 53 NE 9 15 29.77 1008 10 16 0.00 0.00
9:35 am 09:35 Sunny 80 26.5 64 17.6 58 58 ENE 8 13 29.77 1008 10 16 0.00 0.00
9:55 am 09:55 Sunny 80 26.8 64 18 59 59 ENE 9 15 29.77 1008 10 16 0.00 0.00
10:15 am 10:15 Sunny 82 27.5 65 18.2 57 57 E 9 15 29.77 1008 10 16 0.00 0.00
10:35 am 10:35 Sunny 82 27.9 66 18.8 58 58 ENE 7 11 29.77 1008 10 16 0.00 0.00
10:55 am 10:55 Sunny 84 28.7 66 19.1 56 56 E 8 13 29.77 1008 10 16 0.00 0.00
11:15 am 11:15 Sunny 85 29.3 66 19 54 54 E 8 13 29.77 1008 10 16 0.00 0.00
11:35 am 11:35 Sunny 86 30 65 18.6 50 50 E 6 9 29.74 1007 10 16 0.00 0.00
11:55 am 11:55 Sunny 87 30.4 66 19 51 51 ESE 10 17 29.74 1007 10 16 0.00 0.00
12:15 pm 12:15 Sunny 87 30.6 66 18.7 49 49 ESE 9 15 29.74 1007 10 16 0.00 0.00
12:35 pm 12:35 Sunny 88 31.2 65 18.6 47 47 E 3 6 29.74 1007 10 16 0.00 0.00
12:55 pm 12:55 Sunny 89 31.4 67 19.3 49 49 E 8 13 29.74 1007 10 16 0.00 0.00
1:15 pm 13:15 Sunny 89 31.8 67 19.2 47 47 E 6 9 29.74 1007 10 16 0.00 0.00
1:35 pm 13:35 Sunny 91 32.5 66 19.1 45 45 ENE 7 11 29.74 1007 10 16 0.00 0.00
1:55 pm 13:55 Sunny 91 32.5 67 19.2 45 45 ESE 9 15 29.74 1007 10 16 0.00 0.00
2:15 pm 14:15 Sunny 91 33 67 19.2 44 44 E 10 17 29.74 1007 10 16 0.00 0.00
2:35 pm 14:35 Sunny 91 33 67 19.2 44 44 ESE 7 11 29.74 1007 10 16 0.00 0.00
2:55 pm 14:55 Sunny 92 33.5 67 19.2 43 43 E 5 7 29.71 1006 10 16 0.00 0.00
3:15 pm 15:15 Sunny 92 33.6 67 19.5 43 43 E 9 15 29.71 1006 10 16 0.00 0.00
3:35 pm 15:35 Sunny 94 34.4 66 18.8 40 40 E 12 19 29.71 1006 10 16 0.00 0.00
3:55 pm 15:55 Sunny 92 33.5 67 19.6 44 44 ESE 12 19 29.68 1005 10 16 0.00 0.00
4:15 pm 16:15 Sunny 94 34.3 64 17.8 37 37 ESE 13 20 29.68 1005 10 16 0.00 0.00
4:35 pm 16:35 Sunny 93 34.1 67 19.7 43 43 ESE 10 17 29.68 1005 10 16 0.00 0.00
4:55 pm 16:55 Sunny 94 34.2 65 18.4 39 39 E 13 20 29.68 1005 10 16 0.00 0.00
5:15 pm 17:15 Sunny 93 34 65 18.1 39 39 E 13 20 29.65 1004 10 16 0.00 0.00
5:35 pm 17:35 Sunny 93 34 66 18.9 41 41 E 15 24 29.65 1004 10 16 0.00 0.00
5:55 pm 17:55 Sunny 93 33.9 65 18.5 40 40 E 13 20 29.65 1004 10 16 0.00 0.00
6:15 pm 18:15 Sunny 93 33.7 67 19.3 43 43 ESE 14 22 29.65 1004 10 16 0.00 0.00
6:35 pm 18:35 Sunny 92 33.5 68 20.1 45 45 ESE 15 24 29.62 1003 10 16 0.00 0.00
6:55 pm 18:55 Sunny 91 33 70 21 49 49 E 14 22 29.62 1003 10 16 0.00 0.00
7:15 pm 19:15 Sunny 91 32.5 72 22 54 54 E 12 19 29.62 1003 10 16 0.00 0.00
7:35 pm 19:35 Sunny 89 31.7 71 21.8 56 56 E 15 24 29.65 1004 10 16 0.00 0.00
7:55 pm 19:55 Sunny 88 31.2 71 21.8 57 57 E 10 17 29.65 1004 10 16 0.00 0.00
8:15 pm 20:15 Sunny 87 30.4 71 21.9 60 60 E 10 17 29.68 1005 10 16 0.00 0.00
8:35 pm 20:35 Sunny 85 29.5 72 22 64 64 E 10 17 29.68 1005 10 16 0.00 0.00
8:55 pm 20:55 Sunny 84 28.8 72 22 67 67 E 10 17 29.65 1004 10 16 0.00 0.00
9:15 pm 21:15 Clear 83 28.5 72 22.2 69 69 E 9 15 29.71 1006 10 16 0.00 0.00
9:35 pm 21:35 Clear 82 28 73 22.5 72 72 E 7 11 29.71 1006 10 16 0.00 0.00
9:55 pm 21:55 Clear 82 27.5 73 22.5 74 74 ESE 7 11 29.71 1006 10 16 0.00 0.00
10:15 pm 22:15 Clear 81 27.3 73 22.5 75 75 ESE 9 15 29.71 1006 10 16 0.00 0.00
10:35 pm 22:35 Clear 81 27 73 22.6 77 77 ESE 10 17 29.71 1006 10 16 0.00 0.00
10:55 pm 22:55 Clear 80 26.9 73 22.6 77 77 E 10 17 29.71 1006 10 16 0.00 0.00
11:15 pm 23:15 Clear 80 26.8 73 22.6 78 78 E 7 11 29.74 1007 10 16 0.00 0.00
11:35 pm 23:35 Clear 79 26.1 73 22.5 81 81 ENE 5 7 29.74 1007 10 16 0.00 0.00
11:55 pm 23:55 Partly Cloudy 78 25.5 73 22.5 84 84 E 6 9 29.77 1008 10 16 0.00 0.00

Powered by AerisWeather